[[{"header":{"parameterUnit":"m.s-1","parameterCategory":1,"la1":30.2991,"la2":30.254,"lo1":-89.0895,"lo2":-89.0444,"dy":0.0017,"dx":0.0017,"nx":28,"ny":28,"refTime":"2024-03-20T21:00:00:Z","depth":0,"parameterNumber":2,"parameterNumberName":"U-component_of_WINDS"},"data":[0,0,0,0,0,0,0,0,0,0,0,0,0,0,0,0,0,0,0,0,0,0,0,0,0,0,0,0,0,0,0,0,0,0,0,0,0,0,0,0,0,0,0,0,0,0,0,0,0,0,0,0,0,0,0,0,0,0,-2.8099,-2.8099,0,-2.8069,-2.8069,-2.8068,-2.795,-2.7947,-2.7944,-2.7941,-2.7912,-2.7913,-2.7915,0,0,0,0,0,0,0,0,0,0,0,0,0,-2.8055,-2.8056,-2.8099,-2.8099,-2.8099,-2.8069,-2.8069,-2.8068,-2.795,-2.7947,-2.7943,-2.794,-2.7911,-2.7913,-2.7915,0,0,0,0,0,0,0,0,0,0,0,0,0,-2.8054,-2.8057,-2.81,-2.8036,-2.803,-2.8069,-2.8069,-2.8068,-2.7951,-2.7947,-2.7942,-2.7939,-2.7911,-2.7913,-2.7916,-2.8014,0,0,-2.7924,-2.7925,0,0,0,0,0,0,0,0,-2.8055,-2.8056,-2.8046,-2.8041,-2.8034,-2.8009,-2.8042,-2.805,-2.7952,-2.7981,-2.7941,-2.7937,-2.7947,-2.7947,-2.795,-2.8012,-2.8011,-2.7924,-2.7926,-2.7927,-2.7927,0,0,0,0,0,0,0,-2.8055,-2.8057,-2.8087,-2.8046,-2.8039,-2.8009,-2.8004,-2.8043,-2.7988,-2.7978,-2.7969,-2.7967,-2.7943,-2.7948,-2.7949,-2.8011,-2.7924,-2.7926,-2.7928,-2.7929,-2.815,-2.8154,0,0,0,0,0,0,-2.8064,-2.8058,-2.8088,-2.8086,-2.8034,-2.8013,-2.8008,-2.8021,-2.7987,-2.7978,-2.7971,-2.7962,-2.7945,-2.7946,-2.7947,-2.8059,-2.7927,-2.7929,-2.7931,-2.8146,-2.8151,-2.8156,0,0,0,0,0,0,-2.8063,-2.8068,-2.809,-2.807,-2.807,-2.8018,-2.8034,-2.8023,-2.8027,-2.7981,-2.7971,-2.7986,-2.7942,-2.7943,-2.7998,-2.8056,-2.793,-2.7933,-2.8141,-2.8147,-2.8153,-2.8284,0,0,0,0,0,0,-2.8062,-2.8068,-2.8105,-2.8071,-2.8072,-2.8141,-2.8037,-2.8025,-2.8032,-2.802,-2.7992,-2.7984,-2.7939,-2.7994,-2.8,-2.8058,-2.7935,-2.8135,-2.8144,-2.8151,-2.8274,-2.8294,-2.8311,0,0,0,0,0,-2.8061,-2.8144,-2.8108,-2.8112,-2.8117,-2.8145,-2.8145,-2.8091,-2.8037,-2.8073,-2.8044,-2.7985,-2.8049,-2.8001,-2.8006,-2.8066,-2.8131,-2.8141,-2.8151,-2.8266,-2.829,-2.8311,0,0,0,0,0,0,-2.8188,-2.8139,-2.8098,-2.8172,-2.8164,-2.8125,-2.817,-2.8119,-2.8126,-2.8115,-2.8048,-2.8043,-2.8106,-2.8091,-2.8039,-2.8158,-2.808,-2.8091,-2.8166,-2.8188,-2.8207,-2.8209,-2.7937,0,0,0,0,0,-2.8224,-2.8251,-2.8206,-2.8276,-2.8274,-2.8223,-2.8233,-2.8192,-2.818,-2.8176,-2.8151,-2.8142,-2.8159,-2.8173,-2.8187,-2.8271,-2.8263,-2.8314,-2.8332,-2.8348,-2.8359,-2.8401,-2.8423,-2.8187,-2.8187,-2.8187,0,0,-2.83,-2.8276,-2.8298,-2.8301,-2.8289,-2.8318,-2.8221,-2.8256,-2.8276,-2.8182,-2.8231,-2.8212,-2.8197,-2.8267,-2.8296,-2.8256,-2.8422,-2.836,-2.8373,-2.8375,-2.8413,-2.8436,-2.8455,-2.8194,-2.8193,-2.8192,0,0,-2.8453,-2.8438,-2.8494,-2.8484,-2.8467,-2.8432,-2.8445,-2.8413,-2.8397,-2.8445,-2.8374,-2.8397,-2.843,-2.8422,-2.8422,-2.8569,-2.8515,-2.8576,-2.8673,-2.8715,-2.8733,-2.8749,-2.8801,-2.8821,-2.8586,-2.8587,-2.8587,0,-2.855,-2.8591,-2.853,-2.8568,-2.8572,-2.8485,-2.8541,-2.8534,-2.8523,-2.8528,-2.8482,-2.8519,-2.8504,-2.857,-2.8605,-2.8609,-2.8621,-2.8579,-2.8735,-2.8751,-2.8765,-2.8814,-2.8834,-2.8594,-2.8593,-2.8593,-2.8592,0,-2.871,-2.8739,-2.8786,-2.8776,-2.8784,-2.8832,-2.8777,-2.8793,-2.875,-2.872,-2.8769,-2.8747,-2.8754,-2.8766,-2.8726,-2.8826,-2.8802,-2.8747,-2.8668,-2.8796,-2.8841,-2.8859,-2.8605,-2.8602,-2.86,-2.8598,0,0,-2.8945,-2.8898,-2.8917,-2.891,-2.8884,-2.8905,-2.8947,-2.8953,-2.8968,-2.8962,-2.8996,-2.9024,-2.8973,-2.8973,-2.893,-2.8967,-2.9084,-2.8907,-2.8906,-2.8941,-2.9193,-2.9235,-2.9257,-2.9047,-2.9051,-2.9053,-2.9194,0,-2.9091,-2.9161,-2.9106,-2.9186,-2.9211,-2.9128,-2.9165,-2.9153,-2.9125,-2.9142,-2.9111,-2.9132,-2.9062,-2.9062,-2.9094,-2.9063,-2.9134,-2.9052,-2.9079,-2.908,-2.9086,-2.9281,-2.9326,-2.9459,-2.9211,-2.9214,-2.9216,0,-2.9271,-2.9272,-2.9355,-2.932,-2.9329,-2.9363,-2.9363,-2.938,-2.9364,-2.9341,-2.934,-2.9287,-2.9326,-2.9247,-2.9299,-2.9245,-2.9252,-2.9238,-2.9242,-2.9243,-2.9157,-2.9288,-2.9501,-2.9521,-2.9243,-2.9241,-2.9239,0,-2.9435,-2.9456,-2.9508,-2.9505,-2.9466,-2.9492,-2.9477,-2.9456,-2.9463,-2.9463,-2.9466,-2.9471,-2.9474,-2.9479,-2.9428,-2.9375,-2.9487,-2.9404,-2.9469,-2.947,-2.9497,-2.9496,-2.9715,-2.9501,-2.9501,-2.95,-2.95,0,-2.9604,-2.9658,-2.958,-2.9612,-2.9669,-2.9604,-2.9663,-2.9639,-2.9621,-2.9646,-2.9575,-2.9601,-2.9531,-2.955,-2.951,-2.9559,-2.9561,-2.9543,-2.9532,-2.955,-2.9553,-2.9555,-2.9545,-2.9506,-2.9504,-2.9503,-2.9502,0,-2.9797,-2.9747,-2.9798,-2.9756,-2.9746,-2.9791,-2.9755,-2.9782,-2.9748,-2.9781,-2.9785,-2.9733,-2.975,-2.9699,-2.9709,-2.9682,-2.9754,-2.9727,-2.9759,-2.9752,-2.982,-2.9814,-3.0048,-3.0075,-2.9844,-2.9846,-2.9848,0,-2.9909,-2.9948,-2.9909,-2.9921,-2.9909,-2.9929,-2.9934,-2.9871,-2.988,-2.9862,-2.9892,-2.9903,-2.9909,-2.9941,-2.9903,-2.991,-2.9884,-2.9965,-2.9884,-2.9901,-2.9885,-2.9884,-2.9887,-2.9982,-2.9985,-2.9988,-2.9989,0,-3.0113,-3.0085,-3.0095,-3.0097,-3.0105,-3.0103,-3.0096,-3.011,-3.0042,-3.0055,-3.0071,-3.0075,-3.0084,-3.0096,-3.0094,-3.0079,-3.0024,-3.0015,-3.003,-3.0049,-3.0066,-3.0058,-2.9806,-3.001,-3.0008,-3.0006,-3.0005,-3.0005,-3.0269,-3.0299,-3.0276,-3.0289,-3.0276,-3.0271,-3.0294,-3.0262,-3.0274,-3.0276,-3.0237,-3.0261,-3.0242,-3.0233,-3.0223,-3.0241,-3.0203,-3.0226,-3.0232,-3.0238,-3.025,-3.0063,-3.024,-3.024,-3.0239,-3.0238,-3.0238,0,-3.0469,-3.0449,-3.0462,-3.0453,-3.0463,-3.0408,-3.0396,-3.0409,-3.0431,-3.0416,-3.0422,-3.044,-3.0451,-3.0414,-3.0419,-3.044,-3.0414,-3.0443,-3.0442,-3.0439,-3.0283,-3.0269,-3.0464,-3.0464,-3.0464,-3.0464,-3.0464,-3.0464,-3.0574,-3.0622,-3.0591,-3.0631,-3.0611,-3.0633,-3.0631,-3.0626,-3.0613,-3.0636,-3.0644,-3.0619,-3.0595,-3.0597,-3.0604,-3.0593,-3.0598,-3.0636,-3.0617,-3.0472,-3.045,-3.0429,-3.0416,-3.0638,-3.0638,-3.0771,-3.0772,-3.0773]},{"header":{"parameterUnit":"m.s-1","parameterCategory":1,"la1":30.2991,"la2":30.254,"lo1":-89.0895,"lo2":-89.0444,"dy":0.0017,"dx":0.0017,"nx":28,"ny":28,"refTime":"2024-03-20T21:00:00:Z","depth":0,"parameterNumber":3,"parameterNumberName":"V-component_of_WINDS"},"data":[0,0,0,0,0,0,0,0,0,0,0,0,0,0,0,0,0,0,0,0,0,0,0,0,0,0,0,0,0,0,0,0,0,0,0,0,0,0,0,0,0,0,0,0,0,0,0,0,0,0,0,0,0,0,0,0,0,0,-6.5874,-6.5873,0,-6.5787,-6.5786,-6.5785,-6.5587,-6.5583,-6.5579,-6.5575,-6.5491,-6.5493,-6.5494,0,0,0,0,0,0,0,0,0,0,0,0,0,-6.5873,-6.5874,-6.5874,-6.5873,-6.5872,-6.5787,-6.5786,-6.5785,-6.5588,-6.5582,-6.5578,-6.5573,-6.5491,-6.5492,-6.5494,0,0,0,0,0,0,0,0,0,0,0,0,0,-6.5839,-6.5874,-6.5874,-6.5763,-6.5752,-6.5788,-6.5786,-6.5785,-6.5589,-6.5582,-6.5576,-6.557,-6.549,-6.5492,-6.5495,-6.5633,0,0,-6.5502,-6.5503,0,0,0,0,0,0,0,0,-6.5841,-6.5839,-6.578,-6.5771,-6.5758,-6.5691,-6.5755,-6.5734,-6.559,-6.5651,-6.5575,-6.5567,-6.5563,-6.5559,-6.5556,-6.5629,-6.5625,-6.5502,-6.5504,-6.5505,-6.5505,0,0,0,0,0,0,0,-6.5843,-6.5842,-6.584,-6.578,-6.5766,-6.5719,-6.5707,-6.575,-6.5643,-6.5645,-6.563,-6.5623,-6.5556,-6.5555,-6.5553,-6.5624,-6.5502,-6.5504,-6.5506,-6.5507,-6.5804,-6.581,0,0,0,0,0,0,-6.5861,-6.5845,-6.5842,-6.5837,-6.5785,-6.5724,-6.5711,-6.5719,-6.5642,-6.5624,-6.5628,-6.5614,-6.5554,-6.555,-6.5549,-6.5704,-6.5505,-6.5507,-6.5508,-6.5798,-6.5806,-6.5813,0,0,0,0,0,0,-6.5862,-6.5863,-6.5846,-6.5837,-6.5831,-6.573,-6.5742,-6.5721,-6.5719,-6.5629,-6.5609,-6.5646,-6.5549,-6.5546,-6.5613,-6.5699,-6.5508,-6.551,-6.579,-6.58,-6.5809,-6.6017,0,0,0,0,0,0,-6.5863,-6.5864,-6.5915,-6.5839,-6.5832,-6.591,-6.5747,-6.5724,-6.5723,-6.5704,-6.564,-6.5624,-6.5544,-6.561,-6.5615,-6.5699,-6.5512,-6.5782,-6.5795,-6.5806,-6.6002,-6.6033,-6.6059,0,0,0,0,0,-6.5863,-6.5978,-6.5918,-6.5919,-6.5893,-6.5915,-6.5911,-6.5815,-6.5731,-6.5781,-6.5723,-6.5626,-6.5689,-6.5619,-6.5623,-6.5708,-6.5776,-6.5791,-6.5805,-6.5989,-6.6027,-6.6058,0,0,0,0,0,0,-6.6068,-6.5966,-6.5899,-6.5992,-6.5964,-6.5882,-6.5942,-6.5858,-6.5854,-6.5836,-6.5718,-6.5706,-6.5789,-6.5755,-6.5679,-6.5837,-6.5717,-6.5733,-6.5856,-6.589,-6.5918,-6.5924,-6.5514,0,0,0,0,0,-6.6124,-6.6149,-6.6059,-6.6151,-6.614,-6.6044,-6.605,-6.5978,-6.5945,-6.5932,-6.5879,-6.5852,-6.5864,-6.5876,-6.5883,-6.5997,-6.598,-6.6058,-6.6086,-6.611,-6.6125,-6.6182,-6.6215,-6.586,-6.586,-6.586,0,0,-6.624,-6.6187,-6.6211,-6.619,-6.616,-6.619,-6.6035,-6.6074,-6.6095,-6.5939,-6.5997,-6.5958,-6.5919,-6.601,-6.6048,-6.5985,-6.6219,-6.6129,-6.6148,-6.615,-6.62,-6.6234,-6.6264,-6.587,-6.5868,-6.5867,0,0,-6.6465,-6.6429,-6.6499,-6.6472,-6.6427,-6.6362,-6.638,-6.6311,-6.6278,-6.6335,-6.6218,-6.6243,-6.6269,-6.6245,-6.6237,-6.6455,-6.6365,-6.6461,-6.6609,-6.6666,-6.6693,-6.6717,-6.6794,-6.6823,-6.6476,-6.6477,-6.6477,0,-6.6615,-6.6653,-6.6547,-6.6592,-6.6587,-6.6446,-6.6517,-6.6496,-6.6458,-6.6458,-6.6388,-6.6416,-6.6381,-6.6463,-6.6516,-6.6515,-6.6531,-6.6467,-6.6698,-6.6721,-6.6742,-6.6813,-6.6843,-6.6489,-6.6487,-6.6486,-6.6485,0,-6.6839,-6.6868,-6.6932,-6.6895,-6.6897,-6.6956,-6.686,-6.6875,-6.6803,-6.6747,-6.6807,-6.676,-6.6754,-6.6769,-6.6701,-6.6842,-6.6804,-6.6719,-6.6595,-6.6789,-6.6854,-6.6881,-6.6506,-6.6501,-6.6498,-6.6495,0,0,-6.719,-6.7094,-6.7119,-6.71,-6.704,-6.7061,-6.7115,-6.7107,-6.7122,-6.7101,-6.7142,-6.7167,-6.7086,-6.7078,-6.7005,-6.7056,-6.7229,-6.6962,-6.696,-6.7012,-6.7382,-6.7446,-6.7479,-6.717,-6.7175,-6.7179,-6.7384,0,-6.74,-6.7482,-6.7389,-6.7491,-6.7516,-6.7383,-6.7429,-6.7398,-6.7348,-6.7363,-6.7307,-6.7326,-6.7219,-6.7212,-6.7256,-6.7199,-6.7302,-6.7183,-6.7208,-6.721,-6.7219,-6.7513,-6.7581,-6.7777,-6.7409,-6.7414,-6.7417,0,-6.7656,-6.7644,-6.7749,-6.7682,-6.7689,-6.7732,-6.7717,-6.7733,-6.7696,-6.7656,-6.7646,-6.7559,-6.7607,-6.7488,-6.7552,-6.7474,-6.7479,-6.7453,-6.7458,-6.7455,-6.7324,-6.7517,-6.7837,-6.7866,-6.7456,-6.7453,-6.745,0,-6.79,-6.7911,-6.7974,-6.7962,-6.7886,-6.7919,-6.789,-6.7846,-6.7848,-6.7836,-6.7836,-6.7832,-6.7829,-6.7828,-6.7742,-6.7664,-6.7818,-6.7692,-6.7785,-6.7788,-6.7822,-6.7821,-6.8146,-6.7829,-6.7829,-6.7828,-6.7828,0,-6.8143,-6.8212,-6.8082,-6.8121,-6.8194,-6.8087,-6.8163,-6.812,-6.8083,-6.8112,-6.7998,-6.8028,-6.7913,-6.7932,-6.7865,-6.7928,-6.7929,-6.7897,-6.7879,-6.7907,-6.7911,-6.7907,-6.789,-6.7836,-6.7834,-6.7833,-6.7831,0,-6.8426,-6.8342,-6.8402,-6.8325,-6.8307,-6.8365,-6.8299,-6.8333,-6.8275,-6.8313,-6.8316,-6.8226,-6.8241,-6.8155,-6.8157,-6.8112,-6.8207,-6.8166,-6.8219,-6.8206,-6.8304,-6.8295,-6.8637,-6.8676,-6.8336,-6.834,-6.8342,0,-6.8586,-6.8636,-6.8564,-6.8574,-6.8549,-6.8568,-6.8569,-6.8466,-6.8471,-6.8433,-6.8471,-6.8477,-6.8476,-6.8508,-6.8443,-6.8443,-6.84,-6.852,-6.8399,-6.8425,-6.84,-6.8397,-6.8401,-6.8544,-6.8549,-6.8552,-6.8555,0,-6.8879,-6.8834,-6.8839,-6.8829,-6.8833,-6.8821,-6.8801,-6.8817,-6.8705,-6.8718,-6.8731,-6.873,-6.873,-6.8737,-6.8724,-6.8695,-6.8607,-6.8594,-6.8615,-6.8643,-6.8671,-6.8656,-6.8286,-6.8586,-6.8583,-6.858,-6.8579,-6.8577,-6.9104,-6.9141,-6.9096,-6.9105,-6.9079,-6.9063,-6.909,-6.9035,-6.9044,-6.9034,-6.8974,-6.8999,-6.896,-6.8933,-6.8912,-6.8931,-6.8874,-6.8906,-6.8913,-6.8922,-6.8939,-6.867,-6.8929,-6.8928,-6.8927,-6.8926,-6.8925,0,-6.9389,-6.9353,-6.9362,-6.9337,-6.9344,-6.926,-6.9234,-6.9246,-6.9269,-6.924,-6.924,-6.9256,-6.9263,-6.9199,-6.9197,-6.9224,-6.9184,-6.9227,-6.9223,-6.9218,-6.8991,-6.8971,-6.926,-6.926,-6.926,-6.926,-6.926,-6.9259,-6.9538,-6.9596,-6.9547,-6.9592,-6.9555,-6.9577,-6.9569,-6.9555,-6.953,-6.9553,-6.9557,-6.9514,-6.9471,-6.9466,-6.9468,-6.9449,-6.9453,-6.951,-6.9478,-6.9267,-6.9234,-6.9203,-6.9184,-6.9513,-6.9513,-6.9703,-6.9705,-6.9706]}]]